Location: Del Amo
(33.8464°N, 118.2104°W)
Time: 17:18:41
(UTC+00:00)

Vanguard 2 Rocket - Pass Details

Date: 21 September 2024
Orbit: 553 x 3298 km, 32.9° (Epoch: 11 October)

Event Time Altitude Azimuth Distance (km) Brightness Sun altitude
Rises 11:16:38 0° 279° (W) 4,674 - -29.9°
Reaches altitude 10° 11:19:12 10° 278° (W) 3,979 - -29.5°
Exits shadow 11:25:02 42° 269° (W) 2,758 8.8 -28.3°
Maximum altitude 11:30:37 76° 195° (SSW) 2,519 8.8 -27.3°
Drops below altitude 10° 11:49:23 10° 114° (ESE) 6,152 11.7 -23.6°
Sets 11:54:28 0° 113° (ESE) 7,267 12.3 -22.6°
